Content
SEND FEEDBACK

Daily
Averages
Monthly
Summary
United States of America

GREENSBURG, INDIANA


Home > North America > United States > Indiana
Elevation: 949 feet     Latitude: 39 20N     Longitude: 085 28W

WEATHER
 
SELECT A DAY
Number of Records: 172,729;   Date Range: 10/15/98 - 7/23/14
 
SHARE

PRINT THIS DATA

[ ← Previous Day ]
WEATHER ALMANAC - FEBRUARY 3, 2014
[ Next Day → ]
[ °C ]   °F
Weather ElementAverageHighLow
Temperature23.9 °F28.9 °F (1:53 pm)17.1 °F (7:53 am)
Dewpoint15.8 °F19 °F (1:53 pm)10.9 °F (7:53 am)
Humidity71.4 %78 % (8:53 am)63 % (5:53 pm)
Barometer30.32 in30.39 in (9:53 pm)30.20 in (3:53 am)
Wind Speed7.9 mph13.8 mph (3:53 am)
Weather ElementAverage
Visibility9.3 mi
Wind DirectionESE (124.3 °)

Weather ElementTotal
Precipitation---
Heating Degree Days42 (Base 65)
Averaged from 23 records on February 3, 2014
WEATHER CONDITIONS BREAKOUT
WIND DIRECTION BREAKOUT
WEATHER BY HOUR - FEBRUARY 3, 2014
[ °C ]   °F
Local TimeTemperatureDewpointHumidityBarometerVisibilityWind DirectionWind SpeedGust SpeedPrecipitationEventsConditions
1:53 AM24.1 °F18.0 °F77 %30.22 in10.0 miNorth (10°)11.5 mphOvercast
2:53 AM24.1 °F17.1 °F75 %30.22 in10.0 miNorth (360°)9.2 mphOvercast
3:53 AM23.0 °F16.0 °F74 %30.20 in10.0 miNorth (10°)13.8 mphOvercast
4:53 AM23.0 °F16.0 °F74 %30.25 in10.0 miNorth (350°)10.4 mphOvercast
5:53 AM21.0 °F14.0 °F74 %30.26 in10.0 miNorth (360°)11.5 mphClear
6:53 AM19.0 °F12.9 °F77 %30.29 in10.0 miNorth (350°)10.4 mphClear
7:53 AM17.1 °F10.9 °F77 %30.31 in8.0 miNorth (360°)8.1 mphClear
8:53 AM18.0 °F12.0 °F78 %30.34 in8.0 miNorth (360°)9.2 mphClear
9:53 AM19.9 °F12.9 °F74 %30.35 in9.0 miNorth (10°)9.2 mphClear
10:53 AM23.0 °F15.1 °F72 %30.35 in9.0 miNNE (30°)8.1 mphClear
11:53 AM26.1 °F16.0 °F66 %30.36 in10.0 miVariable5.8 mphClear
12:53 PM26.1 °F17.1 °F69 %30.34 in10.0 miNNE (20°)4.6 mphPartly Cloudy
1:53 PM28.9 °F19.0 °F67 %30.33 in10.0 miNorth (360°)6.9 mphScattered Clouds
2:53 PM28.9 °F19.0 °F67 %30.34 in10.0 miVariable4.6 mphClear
3:53 PM28.9 °F18.0 °F64 %30.33 in10.0 miVariable6.9 mphClear
4:53 PM28.9 °F18.0 °F64 %30.32 in10.0 miNorth (10°)8.1 mphClear
5:53 PM28.0 °F17.1 °F63 %30.35 in10.0 miNNE (20°)5.8 mphClear
6:53 PM26.1 °F17.1 °F69 %30.37 in10.0 miNNE (30°)5.8 mphClear
7:53 PM24.1 °F17.1 °F75 %30.36 in9.0 miNNE (20°)5.8 mphClear
8:53 PM24.1 °F16.0 °F71 %30.36 in8.0 miNE (40°)6.9 mphClear
9:53 PM23.0 °F14.0 °F68 %30.39 in8.0 miNE (40°)5.8 mphClear
10:53 PM21.9 °F14.0 °F72 %30.37 in8.0 miNE (50°)8.1 mphClear
11:53 PM21.9 °F15.1 °F75 %30.37 in7.0 miENE (70°)5.8 mphClear
Hourly data recorded from KGEZ, located miles away from Greensburg, Indiana







STORIES FROM OUR PARTNERS